Weather History for Milton, FL

Change the Weather History Date:

Monday, October 14, 2013

  Actual Average (KNSE) Record (KNSE)
Temperature  
Mean Temperature 74 °F -  
Max Temperature 86 °F 76 °F 86 °F (2012)
Min Temperature 63 °F 56 °F 53 °F (1996)
Cooling Degree Days 10    
Growing Degree Days 24 (Base 50)    
Moisture  
Dew Point 62 °F    
Average Humidity 67    
Maximum Humidity 87    
Minimum Humidity 43    
Precipitation  
Precipitation 0.00 in - - ()
Sea Level Pressure  
Sea Level Pressure 30.04 in    
Wind  
Wind Speed 6 mph (NE)    
Max Wind Speed 9 mph    
Max Gust Speed 16 mph    
Visibility 10 miles    
Events      
Averages and records for this station are not official NWS values.
T = Trace of Precipitation, MM = Missing Value Source: NWS Daily Summary

Daily Weather History Graph

Daily Weather History Graph

Search for Another Location

Airport:

Trip Planner

Search our weather history database for the weather conditions in past years. The results will help you decide how hot, cold, wet, or windy it might be!

Date:

Astronomy

Oct. 14, 2013 Rise Set
Actual Time 6:50 AM CDT 6:17 PM CDT
Civil Twilight 6:25 AM CDT 6:41 PM CDT
Nautical Twilight 5:57 AM CDT 7:09 PM CDT
Astronomical Twilight 5:29 AM CDT 7:37 PM CDT
Moon 3:31 PM CDT (10/14) 2:23 AM CDT (10/14)
Length of Visible Light 12h 16m
Length of Day
11h 27m
Waxing Gibbous, 79% of the Moon is Illuminated
Oct 14
Waxing Gibbous
Oct 18
Full
Oct 26
Last Quarter
Nov 3
New
Nov 9
First Quarter

Hourly Weather History & Observations

Time (CDT) Temp. Heat Index Dew Point Humidity Pressure Visibility Wind Dir Wind Speed Gust Speed Precip Events Conditions
12:56 AM 69.1 °F - 62.1 °F 78% 30.05 in 10.0 mi North 5.8 mph - N/A   Clear
1:56 AM 66.0 °F - 61.0 °F 84% 30.04 in 10.0 mi North 3.5 mph - N/A   Clear
2:56 AM 66.0 °F - 61.0 °F 84% 30.04 in 10.0 mi North 4.6 mph - N/A   Clear
3:56 AM 66.0 °F - 60.1 °F 81% 30.04 in 10.0 mi NNE 4.6 mph - N/A   Clear
4:56 AM 63.0 °F - 59.0 °F 87% 30.05 in 10.0 mi NNE 3.5 mph - N/A   Clear
5:56 AM 64.9 °F - 59.0 °F 81% 30.06 in 10.0 mi NE 4.6 mph - N/A   Clear
6:56 AM 64.9 °F - 60.1 °F 84% 30.08 in 10.0 mi ENE 6.9 mph - N/A   Clear
7:56 AM 66.9 °F - 61.0 °F 81% 30.09 in 10.0 mi ENE 8.1 mph - N/A   Clear
8:52 AM 71.6 °F - 62.6 °F 73% 30.13 in 10.0 mi East 8.1 mph - N/A   Partly Cloudy
8:56 AM 73.0 °F - 63.0 °F 71% 30.09 in 10.0 mi East 9.2 mph - N/A   Clear
9:56 AM 77.0 °F - 64.0 °F 64% 30.09 in 10.0 mi East 8.1 mph - N/A   Clear
10:56 AM 81.0 °F 82.2 °F 63.0 °F 54% 30.08 in 10.0 mi East 8.1 mph - N/A   Clear
11:56 AM 82.9 °F 83.7 °F 62.1 °F 49% 30.06 in 10.0 mi East 5.8 mph - N/A   Clear
12:56 PM 84.0 °F 84.5 °F 62.1 °F 47% 30.03 in 10.0 mi Variable 5.8 mph - N/A   Partly Cloudy
1:56 PM 84.9 °F 85.4 °F 62.1 °F 46% 30.00 in 10.0 mi ENE 6.9 mph 16.1 mph N/A   Scattered Clouds
2:56 PM 84.9 °F 85.0 °F 61.0 °F 44% 29.99 in 10.0 mi NE 4.6 mph - N/A   Clear
3:56 PM 86.0 °F 86.1 °F 61.0 °F 43% 29.99 in 10.0 mi NE 9.2 mph - N/A   Clear
4:56 PM 84.0 °F 84.4 °F 61.0 °F 46% 29.99 in 10.0 mi NNE 5.8 mph - N/A   Clear
5:56 PM 79.0 °F - 62.1 °F 56% 30.01 in 10.0 mi NE 6.9 mph - N/A   Clear
6:56 PM 77.0 °F - 62.1 °F 60% 30.01 in 10.0 mi NE 6.9 mph - N/A   Clear
7:56 PM 73.0 °F - 63.0 °F 71% 30.03 in 10.0 mi ENE 9.2 mph - N/A   Partly Cloudy
8:56 PM 72.0 °F - 62.1 °F 71% 30.04 in 10.0 mi East 9.2 mph - N/A   Clear
9:56 PM 70.0 °F - 62.1 °F 76% 30.04 in 10.0 mi ENE 9.2 mph - N/A   Clear
10:56 PM 69.1 °F - 61.0 °F 75% 30.05 in 10.0 mi ENE 8.1 mph - N/A   Clear
11:56 PM 66.9 °F - 60.1 °F 79% 30.03 in 10.0 mi ENE 5.8 mph - N/A   Clear